Location: Leuk
(46.3174°N, 7.6341°E)
Time: 18:31:32
(UTC+00:00)

Cosmos 2219 - Pass Details

Date: 09 March 2021
Orbit: 835 x 858 km, 71.1° (Epoch: 15 April)

Event Time Altitude Azimuth Distance (km) Brightness Sun altitude
Rises 05:14:03 0° 204° (SSW) 3,391 6.1 -7.7°
Reaches altitude 10° 05:16:29 10° 204° (SSW) 2,457 5.4 -7.2°
Maximum altitude 05:22:08 89° 118° (ESE) 847 3.3 -6.3°
Drops below altitude 10° 05:27:48 10° 27° (NNE) 2,460 6.0 -5.3°
Sets 05:30:14 0° 27° (NNE) 3,396 6.7 -4.9°
